Location: Unspecified
(0.0000°N, 0.0000°E)
Time: 09:05:21
(UTC+00:00)

Vanguard 2 - Pass Details

Date: 20 October 2021
Orbit: 554 x 2936 km, 32.9° (Epoch: 06 December)

Event Time Altitude Azimuth Distance (km) Brightness Sun altitude
Rises 17:43:21 0° 217° (SW) 5,609 12.8 0.3°
Reaches altitude 10° 17:49:25 10° 197° (SSW) 5,061 12.1 -1.2°
Maximum altitude 17:57:36 16° 164° (SSE) 5,008 11.6 -3.2°
Drops below altitude 10° 18:06:43 10° 132° (SE) 5,746 11.6 -5.4°
Sets 18:14:29 0° 113° (ESE) 6,761 11.8 -7.3°
